Météo par heure à Alkino

Ce jour, 13 Mai, Jeudi

Heure Température Précipitation Vent Pression Humidité
00:00 +18°C° 0 mm 1 m/s 753 mmHg 56%
01:00 +16°C° 0 mm 1 m/s 753 mmHg 57%
02:00 +16°C° 0 mm 1 m/s 754 mmHg 57%
03:00 +15°C° 0 mm 1 m/s 754 mmHg 58%
04:00 +16°C° 0 mm 1 m/s 754 mmHg 57%
05:00 +18°C° 0 mm 1 m/s 754 mmHg 57%
06:00 +19°C° 0 mm 1 m/s 754 mmHg 56%
07:00 +20°C° 0 mm 2 m/s 754 mmHg 51%
08:00 +22°C° 0 mm 3 m/s 754 mmHg 45%
09:00 +24°C° 0 mm 3 m/s 754 mmHg 40%
10:00 +25°C° 0 mm 4 m/s 754 mmHg 38%
11:00 +26°C° 0 mm 4 m/s 754 mmHg 36%
12:00 +27°C° 0 mm 4 m/s 753 mmHg 34%
13:00 +27°C° 0 mm 4 m/s 753 mmHg 35%
14:00 +27°C° 0 mm 5 m/s 753 mmHg 35%
15:00 +28°C° 0 mm 5 m/s 753 mmHg 36%
16:00 +27°C° 0 mm 4 m/s 752 mmHg 42%
17:00 +26°C° 0 mm 3 m/s 752 mmHg 48%
18:00 +25°C° 0 mm 3 m/s 752 mmHg 53%
19:00 +22°C° 0 mm 3 m/s 752 mmHg 56%
20:00 +21°C° 0 mm 3 m/s 752 mmHg 59%
21:00 +20°C° 0 mm 3 m/s 752 mmHg 62%
22:00 +19°C° 0.1 mm 3 m/s 752 mmHg 64%
23:00 +18°C° 0.1 mm 3 m/s 752 mmHg 67%

Demain, 14 Mai, Vendredi

Heure Température Précipitation Vent Pression Humidité
00:00 +18°C° 0.1 mm 3 m/s 752 mmHg 69%
01:00 +17°C° 0 mm 3 m/s 751 mmHg 68%
02:00 +17°C° 0 mm 3 m/s 751 mmHg 68%
03:00 +16°C° 0 mm 3 m/s 751 mmHg 68%
04:00 +17°C° 0 mm 3 m/s 751 mmHg 65%
05:00 +18°C° 0 mm 4 m/s 751 mmHg 63%
06:00 +19°C° 0 mm 4 m/s 751 mmHg 60%
07:00 +20°C° 0 mm 4 m/s 751 mmHg 55%
08:00 +22°C° 0 mm 5 m/s 751 mmHg 50%
09:00 +25°C° 0 mm 5 m/s 751 mmHg 45%
10:00 +26°C° 0 mm 5 m/s 751 mmHg 44%
11:00 +27°C° 0 mm 5 m/s 751 mmHg 43%
12:00 +28°C° 0 mm 5 m/s 751 mmHg 42%
13:00 +28°C° 0 mm 5 m/s 751 mmHg 42%
14:00 +28°C° 0 mm 5 m/s 751 mmHg 41%
15:00 +29°C° 0 mm 5 m/s 751 mmHg 40%
16:00 +27°C° 0 mm 4 m/s 751 mmHg 44%
17:00 +26°C° 0 mm 3 m/s 750 mmHg 48%
18:00 +25°C° 0 mm 3 m/s 750 mmHg 52%
19:00 +22°C° 0 mm 3 m/s 750 mmHg 55%
20:00 +21°C° 0 mm 3 m/s 750 mmHg 58%
21:00 +19°C° 0 mm 3 m/s 750 mmHg 61%
22:00 +19°C° 0 mm 3 m/s 750 mmHg 62%
23:00 +18°C° 0 mm 3 m/s 750 mmHg 62%

Après-demain, 15 Mai, Samedi

Heure Température Précipitation Vent Pression Humidité
00:00 +17°C° 0 mm 3 m/s 750 mmHg 63%
01:00 +17°C° 0 mm 3 m/s 750 mmHg 62%
02:00 +17°C° 0 mm 3 m/s 750 mmHg 62%
03:00 +16°C° 0 mm 3 m/s 750 mmHg 61%
04:00 +17°C° 0 mm 3 m/s 750 mmHg 60%
05:00 +18°C° 0 mm 3 m/s 750 mmHg 59%
06:00 +19°C° 0 mm 3 m/s 750 mmHg 58%
07:00 +21°C° 0 mm 4 m/s 750 mmHg 52%
08:00 +23°C° 0 mm 4 m/s 750 mmHg 45%
09:00 +26°C° 0 mm 5 m/s 750 mmHg 39%
10:00 +27°C° 0 mm 5 m/s 750 mmHg 37%
11:00 +28°C° 0 mm 5 m/s 750 mmHg 34%
12:00 +29°C° 0 mm 5 m/s 750 mmHg 32%
13:00 +29°C° 0 mm 5 m/s 750 mmHg 32%
14:00 +29°C° 0 mm 5 m/s 750 mmHg 32%
15:00 +30°C° 0 mm 5 m/s 750 mmHg 32%
16:00 +28°C° 0 mm 4 m/s 750 mmHg 38%
17:00 +27°C° 0 mm 4 m/s 749 mmHg 43%
18:00 +25°C° 0 mm 3 m/s 749 mmHg 49%
19:00 +24°C° 0 mm 3 m/s 749 mmHg 51%
20:00 +21°C° 0 mm 3 m/s 749 mmHg 52%
21:00 +20°C° 0 mm 3 m/s 749 mmHg 54%
22:00 +19°C° 0 mm 3 m/s 749 mmHg 54%
23:00 +18°C° 0 mm 3 m/s 749 mmHg 54%

16 Mai, Dimanche

Heure Température Précipitation Vent Pression Humidité
00:00 +18°C° 0 mm 3 m/s 749 mmHg 54%
01:00 +18°C° 0 mm 3 m/s 749 mmHg 55%
02:00 +17°C° 0 mm 3 m/s 749 mmHg 56%
03:00 +17°C° 0 mm 3 m/s 749 mmHg 57%
04:00 +18°C° 0 mm 3 m/s 749 mmHg 58%
05:00 +19°C° 0 mm 3 m/s 749 mmHg 58%
06:00 +20°C° 0 mm 3 m/s 749 mmHg 58%
07:00 +22°C° 0 mm 4 m/s 749 mmHg 53%
08:00 +25°C° 0 mm 4 m/s 749 mmHg 48%
09:00 +27°C° 0 mm 5 m/s 749 mmHg 43%
10:00 +28°C° 0 mm 5 m/s 749 mmHg 39%
11:00 +29°C° 0 mm 6 m/s 749 mmHg 36%
12:00 +30°C° 0 mm 6 m/s 749 mmHg 32%
13:00 +30°C° 0 mm 6 m/s 748 mmHg 32%
14:00 +30°C° 0 mm 5 m/s 748 mmHg 31%
15:00 +30°C° 0 mm 5 m/s 748 mmHg 31%
16:00 +29°C° 0 mm 4 m/s 748 mmHg 38%
17:00 +28°C° 0 mm 3 m/s 747 mmHg 46%
18:00 +26°C° 0 mm 3 m/s 747 mmHg 54%
19:00 +24°C° 0 mm 3 m/s 747 mmHg 55%
20:00 +22°C° 0 mm 3 m/s 747 mmHg 56%
21:00 +20°C° 0 mm 3 m/s 747 mmHg 57%
22:00 +20°C° 0 mm 3 m/s 747 mmHg 58%
23:00 +19°C° 0 mm 2 m/s 747 mmHg 59%

17 Mai, Lundi

Heure Température Précipitation Vent Pression Humidité
00:00 +18°C° 0 mm 2 m/s 747 mmHg 60%
01:00 +18°C° 0 mm 2 m/s 747 mmHg 62%
02:00 +17°C° 0 mm 2 m/s 748 mmHg 64%
03:00 +17°C° 0 mm 2 m/s 748 mmHg 66%
04:00 +18°C° 0 mm 2 m/s 748 mmHg 65%
05:00 +19°C° 0 mm 2 m/s 748 mmHg 63%
06:00 +21°C° 0 mm 1 m/s 748 mmHg 62%
07:00 +23°C° 0 mm 2 m/s 748 mmHg 57%
08:00 +25°C° 0 mm 2 m/s 748 mmHg 51%
09:00 +27°C° 0 mm 3 m/s 748 mmHg 46%
10:00 +27°C° 0 mm 3 m/s 748 mmHg 43%
11:00 +28°C° 0 mm 3 m/s 748 mmHg 41%
12:00 +29°C° 0 mm 3 m/s 748 mmHg 39%
13:00 +29°C° 0 mm 4 m/s 748 mmHg 38%
14:00 +30°C° 0 mm 4 m/s 748 mmHg 38%
15:00 +30°C° 0 mm 4 m/s 748 mmHg 38%
16:00 +29°C° 0 mm 3 m/s 748 mmHg 43%
17:00 +28°C° 0 mm 2 m/s 748 mmHg 49%
18:00 +27°C° 0 mm 1 m/s 748 mmHg 54%
19:00 +25°C° 0.1 mm 1 m/s 748 mmHg 60%
20:00 +23°C° 0.1 mm 1 m/s 748 mmHg 66%
21:00 +21°C° 0.1 mm 1 m/s 748 mmHg 72%
22:00 +20°C° 0.4 mm 1 m/s 748 mmHg 74%
23:00 +19°C° 0.4 mm 1 m/s 748 mmHg 77%

18 Mai, Mardi

Heure Température Précipitation Vent Pression Humidité
00:00 +19°C° 0.4 mm 1 m/s 748 mmHg 79%
01:00 +18°C° 0 mm 1 m/s 748 mmHg 79%
02:00 +18°C° 0 mm 1 m/s 748 mmHg 80%
03:00 +16°C° 0 mm 1 m/s 749 mmHg 80%
04:00 +18°C° 0 mm 1 m/s 749 mmHg 76%
05:00 +20°C° 0 mm 1 m/s 749 mmHg 72%
06:00 +21°C° 0 mm 1 m/s 749 mmHg 67%
07:00 +21°C° 0 mm 2 m/s 749 mmHg 62%
08:00 +24°C° 0 mm 2 m/s 749 mmHg 57%
09:00 +25°C° 0 mm 2 m/s 750 mmHg 51%
10:00 +26°C° 0 mm 2 m/s 750 mmHg 48%
11:00 +27°C° 0 mm 2 m/s 750 mmHg 44%
12:00 +28°C° 0 mm 1 m/s 750 mmHg 41%
13:00 +29°C° 0 mm 1 m/s 750 mmHg 40%
14:00 +29°C° 0 mm 2 m/s 750 mmHg 38%
15:00 +29°C° 0 mm 2 m/s 750 mmHg 37%
16:00 +28°C° 0 mm 2 m/s 750 mmHg 42%
17:00 +27°C° 0 mm 2 m/s 750 mmHg 46%
18:00 +27°C° 0 mm 2 m/s 750 mmHg 51%
19:00 +25°C° 0 mm 1 m/s 750 mmHg 53%
20:00 +23°C° 0 mm 1 m/s 750 mmHg 55%
21:00 +21°C° 0 mm 1 m/s 750 mmHg 58%
22:00 +21°C° 0 mm 1 m/s 750 mmHg 59%
23:00 +20°C° 0 mm 1 m/s 750 mmHg 60%
Voir plus

Nous avons besoin de votre consentement

Meteoprog et ses fournisseurs de services peuvent stocker et accéder à des données personnelles telles que des cookies, des identifiants d'appareils ou d'autres technologies similaires sur votre appareil et traiter ces données pour personnaliser le contenu et les publicités, ainsi que pour fournir des fonctionnalités de médias sociaux et analyser le trafic.

  • Stocker et/ou accéder à des informations sur votre appareil

    Des cookies, des identifiants d'appareils ou d'autres informations peuvent être stockés ou accessibles sur votre appareil aux fins indiquées ci-dessus.

  • Annonces et contenus personnalisés, mesure des annonces et des contenus, connaissance de l'audience et développement de produits

    Les annonces et le contenu peuvent être personnalisés en fonction d'un profil. D'autres données peuvent être ajoutées pour mieux personnaliser les annonces et le contenu. Les performances des publicités et du contenu peuvent être mesurées. Il est possible d'obtenir des informations sur le public qui a vu les publicités et le contenu. Ces données peuvent être utilisées pour développer ou améliorer l'expérience de l'utilisateur, les systèmes et les logiciels.

En cliquant sur "J'accepte", vous autorisez l'utilisation de cookies, des identifiants d'appareils, des balises web ou d'autres technologies similaires. Vos paramètres peuvent être modifiés dans le navigateur de votre appareil.

Dans certains cas, des intérêts légitimes peuvent être invoqués plutôt qu'un consentement. Vous pouvez en savoir plus à ce sujet dans notre Politique de confidentialité et de cookies.